Starlink 31476

operational
NORAD ID: 59523 Int'l Des: 2024-073 Owner: SPXS Country: US Constellation: starlink
LEOCIRCULAR

Über Starlink 31476

Beschreibung wird geladen...

Live-Position

3D-Globus wird geladen...

Nächste Überflüge

Höhenverlauf

Altitude vs Time

uPlot chart will show altitude changes over time

Zweizeiliger Elementsatz

1 59523U 24073N 25259.17151589 .00002825 00000-0 11210-3 0 9995
2 59523 43.0020 223.7472 0000909 234.1557 125.9211 15.27587354 79483
Epoch: 16. Sept. 2025 • Age: 8 hours

Aktueller Status

Höhe 493.3 km
Geschwindigkeit 7.62 km/s
Subsatellitenpunkt -36.26°S, 0.72°W
Startdatum 17. Apr. 2024
Alter 1.4 years
Typ internet

Technische Details

Klassifizierung Payload
Masse 730.00 kg
Trockenmasse 700.00 kg
Gesamtmasse 730.00 kg
Länge 0.30 m
Durchmesser 4.10 m
Spannweite 29.00 m
Form Box + pan
Hersteller SPXS
Bus-Typ Starlink V2M
Phasenstatus In Orbit
Besitzer/Staat SPXS/US

Große Konstellationen

Loading constellations...